Regional Weather Roundup
Issued by NWS

Home | Current Version | Previous Version | Text Only | Print | Product List | Glossary Off
Versions: 1 2 3 4 5 6 7 8 9 10 11 12 13 14 15 16 17 18 19 20 21 22 23 24 25 26 27 28 29 30 31 32 33 34 35 36 37 38 39 40 41 42 43 44 45 46 47 48 49 50

000
ASUS43 KLMK 241302
RWRKY
KENTUCKY REGIONAL WEATHER ROUNDUP
NATIONAL WEATHER SERVICE LOUISVILLE KY
800 AM EST FRI NOV 24 2017

NOTE "FAIR" INDICATES FEW OR NO CLOUDS BELOW 12,000 FEET
WITH NO SIGNIFICANT WEATHER AND/OR OBSTRUCTIONS TO VISIBILITY.

KYZ001>023-026-027-061>063-070>075-241400-
WESTERN AND SOUTH CENTRAL KENTUCKY

CITY           SKY/WX    TMP DP  RH WIND       PRES   REMARKS
PADUCAH        PTCLDY    38  24  57 VRB3      29.96R
HENDERSON      CLOUDY    35  27  72 S7        29.97R WCI  29
OWENSBORO      CLOUDY    33  25  72 S5        29.99R WCI  29
HOPKINSVILLE   CLOUDY    31  24  74 SE3       29.99S
BOWLING GREEN  CLOUDY    29  27  92 CALM      30.02R
GLASGOW        NOT AVBL
$$

KYZ024-025-028>034-038-045-046-053-241400-
NORTH CENTRAL KENTUCKY

CITY           SKY/WX    TMP DP  RH WIND       PRES   REMARKS
LOUISVILLE/SDF CLOUDY    33  25  72 SE5       30.00R WCI  29
LOUISVILLE/LOU CLOUDY    31  26  82 CALM      30.01R
FORT KNOX      CLOUDY    32  24  71 CALM      29.98R
$$

KYZ035>037-039>044-047>052-055>060-089>105-241400-
NORTHEAST KENTUCKY

CITY           SKY/WX    TMP DP  RH WIND       PRES   REMARKS
LEXINGTON      CLOUDY    32  23  69 SE8       30.00R WCI  25
COVINGTON      CLOUDY    29  24  82 S9        29.97R WCI  20
FRANKFORT      CLOUDY    27  22  81 CALM      29.99R
$$

KYZ054-064>069-076>088-106>120-241400-
SOUTHEAST KENTUCKY

CITY           SKY/WX    TMP DP  RH WIND       PRES   REMARKS
JACKSON        CLOUDY    33  21  61 S3        30.01F
LONDON         CLOUDY    27  23  85 S3        30.02S
SOMERSET       NOT AVBL
MIDDLESBORO    CLEAR     26  26  99 CALM      30.07S
MONTICELLO     CLOUDY    24  22  91 W9        30.04S WCI  14
$$




USA.gov is the U.S. government's official web portal to all federal, state and local government web resources and services.